TimeEST,TemperatureF,Dew PointF,Humidity,Sea Level PressureIn,VisibilityMPH,Wind Direction,Wind SpeedMPH,Gust SpeedMPH,PrecipitationIn,Events,Conditions,WindDirDegrees,DateUTC
12:15 AM,26.6,19.4,74,30.12,10.0,ESE,12.7,20.7,0.00,,Clear,120,2013-02-22 05:15:00
12:35 AM,26.6,19.4,74,30.09,10.0,ESE,11.5,19.6,0.00,,Clear,110,2013-02-22 05:35:00
1:15 AM,26.6,19.4,74,30.04,8.0,East,10.4,18.4,0.00,,Clear,90,2013-02-22 06:15:00
1:35 AM,26.6,19.4,74,30.03,10.0,East,12.7,20.7,0.00,,Clear,90,2013-02-22 06:35:00
1:50 AM,26.6,19.4,74,30.02,10.0,ENE,10.4,18.4,0.00,,Partly Cloudy,70,2013-02-22 06:50:00
2:15 AM,26.6,19.4,74,30.04,9.0,East,6.9,17.3,0.00,,Clear,100,2013-02-22 07:15:00
2:35 AM,26.6,21.2,80,30.03,2.5,East,10.4,-,0.00,,Scattered Clouds,80,2013-02-22 07:35:00
2:55 AM,26.6,23.0,86,30.00,1.0,East,6.9,17.3,0.01,,Mostly Cloudy,100,2013-02-22 07:55:00
3:15 AM,24.8,23.0,93,29.98,1.8,East,9.2,-,0.01,,Scattered Clouds,100,2013-02-22 08:15:00
3:35 AM,26.6,23.0,86,29.95,9.0,East,12.7,20.7,0.01,,Scattered Clouds,100,2013-02-22 08:35:00
3:50 AM,26.6,23.0,86,29.95,10.0,East,10.4,18.4,0.01,,Mostly Cloudy,100,2013-02-22 08:50:00
4:15 AM,26.6,23.0,86,29.91,10.0,East,11.5,19.6,0.00,,Overcast,90,2013-02-22 09:15:00
4:35 AM,26.6,23.0,86,29.88,10.0,East,13.8,20.7,0.00,,Overcast,100,2013-02-22 09:35:00
4:50 AM,26.6,23.0,86,29.89,10.0,ESE,12.7,20.7,0.00,,Overcast,110,2013-02-22 09:50:00
5:15 AM,28.4,23.0,80,29.90,10.0,ESE,12.7,20.7,0.00,,Overcast,110,2013-02-22 10:15:00
5:35 AM,28.4,23.0,80,29.90,4.0,ESE,12.7,20.7,0.00,,Overcast,110,2013-02-22 10:35:00
5:50 AM,28.4,24.8,86,29.89,2.5,SE,11.5,19.6,0.00,,Overcast,130,2013-02-22 10:50:00
6:15 AM,28.4,26.6,93,29.87,5.0,SE,13.8,23.0,0.00,,Overcast,130,2013-02-22 11:15:00
6:35 AM,28.4,26.6,93,29.86,6.0,SE,12.7,21.9,0.00,,Overcast,130,2013-02-22 11:35:00
7:15 AM,28.4,28.4,100,29.86,2.5,SE,16.1,21.9,0.00,,Overcast,130,2013-02-22 12:15:00
7:50 AM,28.4,28.4,100,29.85,2.0,SE,17.3,23.0,0.00,,Overcast,140,2013-02-22 12:50:00
8:15 AM,-9999,-9999,N/A,29.87,2.5,SSE,13.8,19.6,0.00,,Overcast,150,2013-02-22 13:15:00
8:50 AM,30.2,30.2,100,29.88,2.0,SSE,11.5,-,0.00,,Overcast,160,2013-02-22 13:50:00
9:50 AM,32.0,32.0,100,29.87,3.0,SSE,10.4,-,0.00,,Mostly Cloudy,150,2013-02-22 14:50:00
10:35 AM,32.0,32.0,100,29.86,2.0,SSE,11.5,-,0.00,,Overcast,150,2013-02-22 15:35:00
10:50 AM,32.0,32.0,100,29.86,1.8,SSE,12.7,-,0.00,,Overcast,160,2013-02-22 15:50:00
11:15 AM,33.8,33.8,100,29.87,1.2,SSE,12.7,-,0.00,,Overcast,160,2013-02-22 16:15:00
11:35 AM,33.8,33.8,100,29.87,1.0,SSE,13.8,-,0.00,,Overcast,160,2013-02-22 16:35:00
11:50 AM,33.8,33.8,100,29.86,0.8,SSE,12.7,-,0.00,,Overcast,160,2013-02-22 16:50:00
12:15 PM,33.8,33.8,100,29.87,0.5,South,13.8,-,0.00,,Overcast,170,2013-02-22 17:15:00
12:35 PM,33.8,33.8,100,29.86,0.5,South,12.7,-,0.00,,Overcast,180,2013-02-22 17:35:00
12:50 PM,33.8,33.8,100,29.87,0.5,South,10.4,-,0.00,,Overcast,190,2013-02-22 17:50:00
1:35 PM,35.6,35.6,100,29.86,2.0,SSW,15.0,20.7,0.00,,Overcast,210,2013-02-22 18:35:00
1:50 PM,35.6,35.6,100,29.87,4.0,SSW,16.1,23.0,0.00,,Overcast,210,2013-02-22 18:50:00
2:15 PM,35.6,35.6,100,29.87,6.0,SW,18.4,-,0.00,,Mostly Cloudy,220,2013-02-22 19:15:00
2:35 PM,35.6,35.6,100,29.88,6.0,SSW,16.1,21.9,0.00,,Overcast,210,2013-02-22 19:35:00
2:55 PM,35.6,35.6,100,29.88,8.0,SSW,19.6,23.0,0.00,,Overcast,210,2013-02-22 19:55:00
3:15 PM,35.6,35.6,100,29.89,10.0,SW,16.1,-,0.00,,Overcast,220,2013-02-22 20:15:00
3:30 PM,35.6,35.6,100,29.89,10.0,SW,15.0,23.0,0.00,,Overcast,220,2013-02-22 20:30:00
6:30 PM,35.6,33.8,93,29.92,10.0,SW,8.1,-,0.00,,Overcast,230,2013-02-22 23:30:00
6:55 PM,33.8,32.0,93,29.93,10.0,SW,10.4,-,0.00,,Overcast,230,2013-02-22 23:55:00
7:15 PM,33.8,32.0,93,29.94,10.0,SW,10.4,-,0.00,,Overcast,230,2013-02-23 00:15:00
7:30 PM,33.8,32.0,93,29.94,10.0,WSW,11.5,-,0.00,,Overcast,240,2013-02-23 00:30:00
7:55 PM,33.8,32.0,93,29.94,10.0,WSW,11.5,-,0.00,,Overcast,250,2013-02-23 00:55:00
8:15 PM,33.8,32.0,93,29.94,10.0,WSW,11.5,17.3,0.00,,Overcast,250,2013-02-23 01:15:00
8:30 PM,33.8,32.0,93,29.93,10.0,WSW,12.7,-,0.00,,Overcast,250,2013-02-23 01:30:00
8:55 PM,33.8,30.2,87,29.93,10.0,WSW,9.2,16.1,0.00,,Overcast,240,2013-02-23 01:55:00
9:15 PM,33.8,30.2,87,29.93,10.0,WSW,11.5,-,0.00,,Overcast,250,2013-02-23 02:15:00
9:30 PM,33.8,30.2,87,29.93,10.0,West,8.1,-,0.00,,Overcast,260,2013-02-23 02:30:00
9:55 PM,33.8,30.2,87,29.93,10.0,West,8.1,-,0.00,,Overcast,260,2013-02-23 02:55:00
10:15 PM,33.8,32.0,93,29.93,10.0,WSW,6.9,-,0.00,,Overcast,250,2013-02-23 03:15:00
10:30 PM,33.8,30.2,87,29.93,10.0,WSW,6.9,-,0.00,,Overcast,250,2013-02-23 03:30:00
10:55 PM,33.8,30.2,87,29.93,10.0,SW,8.1,-,0.00,,Overcast,230,2013-02-23 03:55:00
11:15 PM,33.8,32.0,93,29.93,10.0,SSW,8.1,-,0.00,,Overcast,210,2013-02-23 04:15:00
11:30 PM,33.8,32.0,93,29.93,10.0,South,6.9,-,0.00,,Overcast,180,2013-02-23 04:30:00
11:55 PM,32.0,32.0,100,29.92,10.0,South,8.1,-,0.00,,Overcast,180,2013-02-23 04:55:00